Location: ???? ??
(36.0534°N, 43.5630°E)
Time: 11:09:00
(UTC+00:00)

Cosmos 1544 - Pass Details

Date: 18 September 2019
Orbit: 475 x 491 km, 82.5° (Epoch: 14 October)

Event Time Altitude Azimuth Distance (km) Brightness Sun altitude
Rises 16:01:41 0° 181° (S) 2,508 6.6 -11.3°
Reaches altitude 10° 16:03:46 10° 179° (S) 1,635 5.6 -11.8°
Maximum altitude 16:07:19 71° 96° (E) 505 2.9 -12.5°
Drops below altitude 10° 16:10:55 10° 11° (NNE) 1,651 5.8 -13.2°
Sets 16:13:01 0° 10° (N) 2,535 6.8 -13.6°
